Flag for Switzerland Weather past 2 weeks in Mendrisio, Ticino, Switzerland

Now
64 °F

Mild.


Feels Like: 64 °F
Forecast: 56 / 68 °F
Wind: 1 mph from Southwest

Location: Stabio

Current Time: Aug 30, 2014 at 8:45:29 AM

Latest Report: Aug 30, 2014 at 7:00 AM


Visibility: N/A

Pressure: 30.03 "Hg

Humidity: 98%

Dew point: 63 °F

Location of MendrisioLocation

Historic Weather in Mendrisio — Graph

°F

Mendrisio temperature yesterday

Maximum temperature yesterday: 77 °F (at 5:00 PM)
Minimum temperature yesterday: 58 °F (at 4:00 AM)
Average temperature yesterday: 67 °F

Past Weeks' High & Low Weather Summary

 TemperatureHumidityPressure
High82 °F (Aug 27, 4:00 PM)100% (Aug 20, 7:00 AM)30.12 "Hg (Aug 20, 7:00 AM)
Low49 °F (Aug 17, 7:00 AM)33% (Aug 27, 4:00 PM)29.77 "Hg (Aug 27, 3:00 PM)
Average64 °F85%29.96 "Hg
* Reported Aug 15 7:00 AM — Aug 30 7:00 AM, Mendrisio, Weather by CustomWeather, © 2014

Note: Actual official high and low records may vary slightly from our data, if they occured in-between our weather recording intervals... More about our weather records

Advertising

Mendrisio weather history for previous 24 hours

 ConditionsComfort  
Time TempWeatherWind HumidityBarometerVisibility
7:00 AM
Aug 30
64 °FMild.1 mph98%30.03 "HgN/A
6:00 AM63 °FMild.1 mph98%30.03 "HgN/A
5:00 AM63 °FMild.1 mph97%30.03 "HgN/A
4:00 AM62 °FCool.1 mph99%30.03 "HgN/A
3:00 AM63 °FMild.1 mph98%30.04 "HgN/A
2:00 AM64 °FMild.1 mph97%30.03 "HgN/A
1:00 AM65 °FMild.1 mph96%30.03 "HgN/A
12:00 AM65 °FMild.1 mph97%30.03 "HgN/A
11:00 PM
Aug 29
66 °FMild.1 mph96%30.03 "HgN/A
9:00 PM66 °FMild.1 mph96%30.02 "HgN/A
8:00 PM69 °FMild.1 mph88%30.00 "HgN/A
7:00 PM74 °FMild.5 mph71%29.98 "HgN/A
6:00 PM76 °FMild.3 mph64%29.98 "HgN/A
5:00 PM77 °FWarm.3 mph64%29.98 "HgN/A
4:00 PM76 °FMild.3 mph62%29.99 "HgN/A
3:00 PM76 °FMild.5 mph65%30.02 "HgN/A
2:00 PM76 °FMild.3 mph65%30.03 "HgN/A
1:00 PM75 °FMild.3 mph69%30.05 "HgN/A
12:00 PM71 °FMild.1 mph76%30.07 "HgN/A
11:00 AM69 °FMild.1 mph80%30.09 "HgN/A
10:00 AM66 °FMild.1 mph87%30.10 "HgN/A
9:00 AM64 °FMild.1 mph95%30.10 "HgN/A
8:00 AM62 °FCool.1 mph97%30.09 "HgN/A
Weather by CustomWeather, © 2014

See weather overviewHow to use our weather pages